Weather History for Wakefield, VA

Change the Weather History Date:

Friday, January 4, 2013

  Actual Average (KJGG) Record (KJGG)
Temperature  
Mean Temperature 34 °F -  
Max Temperature 46 °F 50 °F 75 °F (2005)
Min Temperature 23 °F 30 °F 12 °F (1979)
Degree Days  
Heating Degree Days 30    
Moisture  
Dew Point 24 °F    
Average Humidity 67    
Maximum Humidity 89    
Minimum Humidity 37    
Precipitation  
Precipitation 0.00 in - - ()
Sea Level Pressure  
Sea Level Pressure 30.22 in    
Wind  
Wind Speed 2 mph (WSW)    
Max Wind Speed 8 mph    
Max Gust Speed -    
Visibility 8 miles    
Events      
Averages and records for this station are not official NWS values.
T = Trace of Precipitation, MM = Missing Value Source: NWS Daily Summary

Daily Weather History Graph

Daily Weather History Graph

Search for Another Location

Airport:

Trip Planner

Search our weather history database for the weather conditions in past years. The results will help you decide how hot, cold, wet, or windy it might be!

Date:

Astronomy

Jan. 04, 2013 Rise Set
Actual Time 7:21 AM EST 5:04 PM EST
Civil Twilight 6:52 AM EST 5:33 PM EST
Nautical Twilight 6:20 AM EST 6:05 PM EST
Astronomical Twilight 5:49 AM EST 6:37 PM EST
Moon No Moon Rise 11:14 AM EST (1/4)
Length of Visible Light 10h 40m
Length of Day
9h 43m
Waning Gibbous, 55% of the Moon is Illuminated
Jan 4
Waning Gibbous
Jan 4
Last Quarter
Jan 11
New
Jan 18
First Quarter
Jan 26
Full

Hourly Weather History & Observations

Time (EST) Temp. Windchill Dew Point Humidity Pressure Visibility Wind Dir Wind Speed Gust Speed Precip Events Conditions
12:54 AM 27.0 °F 23.0 °F 24.1 °F 89% 30.22 in 4.0 mi SSW 3.5 mph - N/A   Clear
1:54 AM 26.1 °F - 23.0 °F 88% 30.22 in 4.0 mi Calm Calm - N/A   Clear
2:54 AM 27.0 °F - 24.1 °F 89% 30.24 in 4.0 mi Calm Calm - N/A   Clear
3:54 AM 28.0 °F - 25.0 °F 88% 30.25 in 6.0 mi Calm Calm - N/A   Clear
4:54 AM 26.1 °F - 23.0 °F 88% 30.24 in 6.0 mi Calm Calm - N/A   Clear
5:54 AM 24.1 °F - 21.0 °F 88% 30.25 in 5.0 mi Calm Calm - N/A   Clear
6:54 AM 23.0 °F - 19.9 °F 88% 30.26 in 4.0 mi Calm Calm - N/A   Clear
7:54 AM 25.0 °F - 21.9 °F 88% 30.27 in 4.0 mi Calm Calm - N/A   Clear
8:54 AM 30.0 °F - 26.1 °F 85% 30.27 in 6.0 mi Calm Calm - N/A   Clear
9:54 AM 36.0 °F 30.3 °F 26.1 °F 67% 30.27 in 10.0 mi West 6.9 mph - N/A   Clear
10:54 AM 39.9 °F 37.8 °F 25.0 °F 55% 30.27 in 10.0 mi Variable 3.5 mph - N/A   Clear
11:54 AM 42.1 °F 37.7 °F 26.1 °F 53% 30.24 in 10.0 mi West 6.9 mph - N/A   Clear
12:54 PM 44.1 °F 40.1 °F 23.0 °F 43% 30.20 in 10.0 mi SW 6.9 mph - N/A   Clear
1:54 PM 46.0 °F 41.9 °F 23.0 °F 40% 30.16 in 10.0 mi SW 8.1 mph - N/A   Clear
2:54 PM 46.9 °F - 21.9 °F 37% 30.16 in 10.0 mi West 6.9 mph - N/A   Clear
3:54 PM 46.9 °F - 23.0 °F 39% 30.17 in 10.0 mi West 6.9 mph - N/A   Clear
4:54 PM 43.0 °F 40.3 °F 24.1 °F 47% 30.17 in 10.0 mi West 4.6 mph - N/A   Clear
5:54 PM 39.0 °F - 25.0 °F 57% 30.18 in 10.0 mi Calm Calm - N/A   Clear
6:54 PM 37.9 °F - 27.0 °F 65% 30.20 in 10.0 mi Calm Calm - N/A   Clear
7:54 PM 36.0 °F - 26.1 °F 67% 30.22 in 10.0 mi Calm Calm - N/A   Clear
8:54 PM 37.0 °F 34.5 °F 26.1 °F 65% 30.21 in 10.0 mi SW 3.5 mph - N/A   Clear
9:54 PM 37.0 °F - 23.0 °F 57% 30.23 in 10.0 mi Calm Calm - N/A   Clear
10:54 PM 36.0 °F - 21.9 °F 57% 30.24 in 10.0 mi Calm Calm - N/A   Clear
11:54 PM 34.0 °F - 21.0 °F 59% 30.24 in 10.0 mi Calm Calm - N/A   Clear